Other Public Products
Issued by NWS Charleston, SC

Current Version | Previous Version | Graphics & Text | Print | Product List | Glossary On
Versions: 1 2 3 4 5 6 7 8 9 10 11 12 13 14 15 16 17 18 19 20 21 22 23 24 25 26 27 28 29 30 31 32 33 34 35 36 37 38 39 40 41 42 43 44 45 46 47 48 49 50
000 FPUS82 KCHS 161927 OPUCHS TEST...KCHS/KSAV Gateway Observations...TEST National Weather Service Charleston SC 200 PM EST SAT DEC 16 2017 NOTE: "fair" indicates few or no clouds below 12,000 feet with no significant weather and/or obstructions to visibility. SCZ050-WAZ558-NCZ071-TXZ119-213-PAZ071-DCZ001-FLZ074-172-MI076- NYZ176-178-MAZ016-IL014-TNZ027-NJZ106-GAZ044-MD014-162000- ...Gateway Observations for Charleston International... CITY SKY/WX TMP DP RH WIND PRES REMARKS Chas Airport MOSUNNY 53 32 44 VRB5 30.26F Seattle CLOUDY 43 38 82 SE7 30.33F Charlotte PTSUNNY 48 22 35 SW10 30.23F Dallas DFW CLOUDY 62 28 27 S18 30.05F Dallas Love PTSUNNY 63 27 25 S14G25 30.07F Philladelphia PTSUNNY 41 24 51 SW18G25 30.05F Wash National MOSUNNY 47 23 38 S15G23 30.09F Baltimore MOSUNNY 44 22 41 SW13G25 30.06F Miami PTSUNNY 79 61 53 E10 30.16S Detroit CLOUDY 32 25 75 NE12 29.99R HAZE WCI 23 Newark CLOUDY 37 23 56 SW20G26 29.99F WCI 27 Laguardia PTSUNNY 38 22 52 W16 29.98S WCI 29 J F K PTSUNNY 37 25 61 W14 30.00F WCI 28 Boston Logan PTSUNNY 32 13 45 W16G26 29.89S WCI 21 Ft. Lauderdale PTSUNNY 77 63 61 NE10 30.16F Chicago O`Hare MOSUNNY 44 25 47 SW5 29.88F Chicago Midway MOSUNNY 45 26 47 SW7 29.89F Houston Bush PTSUNNY 57 34 41 SE13 30.12F Houston Hobby CLOUDY 58 40 51 SE15G22 30.12F Nashville PTSUNNY 51 29 42 SW8G20 30.20F Atlanta CLOUDY 51 28 41 NW6 30.24F $$ GAZ044-118-TXZ119-213-NCZ071-DCZ001-MDZ014-506-PAZ021-071-NJZ106- NYZ176-178-MAZ106-OHZ011-021-055-MIZ076-KYZ091-ILZ014-INZ047- MNZ060-ONZ431-162000- ...Gateway Observations for Savannah International... CITY SKY/WX TMP DP RH WIND PRES REMARKS Savannah Arpt MOSUNNY 54 26 34 VRB3 30.27F Atlanta CLOUDY 51 28 41 NW6 30.24F Charlotte PTSUNNY 48 22 35 SW10 30.23F Dallas DFW CLOUDY 62 28 27 S18 30.05F Houston Bush PTSUNNY 57 34 41 SE13 30.12F Wash National MOSUNNY 47 23 38 S15G23 30.09F Wash Dulles MOSUNNY 45 22 40 SW14 30.07F Baltimore MOSUNNY 44 22 41 SW13G25 30.06F Philadelphia PTSUNNY 41 24 51 SW18G25 30.05F Newark CLOUDY 37 23 56 SW20G26 29.99F WCI 27 Laguardia PTSUNNY 38 22 52 W16 29.98S WCI 29 J F K PTSUNNY 37 25 61 W14 30.00F WCI 28 Boston PTSUNNY 32 13 45 W16G26 29.89S WCI 21 Pittsburg CLOUDY 40 26 57 SW13G22 30.00F WCI 32 Akron PTSUNNY 40 26 57 SW10 29.98S WCI 33 Cleveland CLOUDY 39 28 64 W14 30.00S WCI 31 Cincinnati SUNNY 49 29 46 SW14G24 30.05F Columbus SUNNY 47 27 46 SW20G26 30.02F Detroit CLOUDY 32 25 75 NE12 29.99R HAZE WCI 23 Chicago O`Hare MOSUNNY 44 25 47 SW5 29.88F Minneapolis CLOUDY 28 25 88 E5 29.90R WCI 23 Indianapolis SUNNY 50 29 44 SW18 29.99F Toronto Canada PTSUNNY 21 10 63 N13 30.01R WCI 9 $$

USA.gov is the U.S. government's official web portal to all federal, state and local government web resources and services.